Defiance, OH

12:29 AM EST on January 21, 2018 (GMT -0500)
Defiance Memorial

Weather History for KDFI - February, 2012

Change the Weather History Date:

Wednesday, February 8, 2012

  Actual Average Record
Temperature  
Mean Temperature 32 °F -  
Max Temperature 37 °F 30 °F 67 °F (1937)
Min Temperature 26 °F 12 °F -11 °F (1967)
Degree Days  
Heating Degree Days 33    
Moisture  
Dew Point 20 °F    
Average Humidity 65    
Maximum Humidity 80    
Minimum Humidity 42    
Precipitation  
Precipitation 0.00 in - - ()
Sea Level Pressure  
Sea Level Pressure 30.32 in    
Wind  
Wind Speed 6 mph (North)    
Max Wind Speed 9 mph    
Max Gust Speed -    
Visibility 10 miles    
Events      
Averages and records for this station are not official NWS values.
T = Trace of Precipitation, MM = Missing Value Source: NWS Daily Summary

Daily Weather History Graph

Daily Weather History Graph

Search for Another Location

Airport or City:

Trip Planner

Search our weather history database for the weather conditions in past years. The results will help you decide how hot, cold, wet, or windy it might be!

Date:

Astronomy

Feb. 08, 2012 Rise Set
Actual Time 7:42 AM EST 6:02 PM EST
Civil Twilight 7:13 AM EST 6:31 PM EST
Nautical Twilight 6:40 AM EST 7:03 PM EST
Astronomical Twilight 6:08 AM EST 7:36 PM EST
Moon 7:22 PM EST (2/8) 7:43 AM EST (2/8)
Length of Visible Light 11h 17m
Length of Day
10h 20m
Full, 99% of the Moon is Illuminated
Feb 8
Full
Feb 14
Last Quarter
Feb 21
New
Feb 29
First Quarter
Mar 8
Full

Hourly Weather History & Observations

Time (EST) Temp. Windchill Dew Point Humidity Pressure Visibility Wind Dir Wind Speed Gust Speed Precip Events Conditions
12:30 AM 30.2 °F 23.4 °F 24.8 °F 80% 30.33 in 10.0 mi Variable 6.9 mph - N/A   Overcast
12:53 AM 30.9 °F 25.2 °F 23.0 °F 72% 30.35 in 10.0 mi NE 5.8 mph - N/A   Overcast
1:53 AM 30.0 °F 22.4 °F 21.9 °F 72% 30.35 in 10.0 mi NE 8.1 mph - N/A   Overcast
2:53 AM 30.0 °F 23.2 °F 21.9 °F 72% 30.35 in 10.0 mi NE 6.9 mph - N/A   Overcast
3:08 AM 28.4 °F 21.2 °F 21.2 °F 74% 30.32 in 10.0 mi NE 6.9 mph - N/A   Overcast
3:53 AM 28.9 °F 23.9 °F 21.0 °F 72% 30.35 in 10.0 mi NE 4.6 mph - N/A   Overcast
4:53 AM 28.0 °F 21.7 °F 21.0 °F 75% 30.35 in 10.0 mi NE 5.8 mph - N/A   Overcast
5:53 AM 28.0 °F 21.7 °F 21.0 °F 75% 30.35 in 10.0 mi NE 5.8 mph - N/A   Overcast
6:53 AM 28.0 °F 22.8 °F 21.0 °F 75% 30.34 in 10.0 mi NE 4.6 mph - N/A   Overcast
7:53 AM 27.0 °F 19.5 °F 19.0 °F 72% 30.34 in 10.0 mi NNE 6.9 mph - N/A   Overcast
8:53 AM 27.0 °F 20.5 °F 17.1 °F 66% 30.36 in 10.0 mi NNE 5.8 mph - N/A   Overcast
9:53 AM 28.0 °F 22.8 °F 18.0 °F 66% 30.36 in 10.0 mi NNW 4.6 mph - N/A   Scattered Clouds
10:53 AM 30.0 °F 25.2 °F 19.0 °F 64% 30.36 in 10.0 mi North 4.6 mph - N/A   Clear
11:53 AM 32.0 °F 24.8 °F 19.9 °F 61% 30.35 in 10.0 mi North 8.1 mph - N/A   Clear
12:53 PM 34.0 °F 26.6 °F 19.0 °F 54% 30.32 in 10.0 mi NW 9.2 mph - N/A   Clear
1:53 PM 36.0 °F 30.3 °F 19.9 °F 52% 30.30 in 10.0 mi NW 6.9 mph - N/A   Clear
2:53 PM 36.0 °F 31.1 °F 18.0 °F 48% 30.28 in 10.0 mi NW 5.8 mph - N/A   Clear
3:53 PM 37.0 °F 33.3 °F 16.0 °F 42% 30.28 in 10.0 mi Variable 4.6 mph - N/A   Clear
4:53 PM 37.0 °F 31.6 °F 18.0 °F 46% 30.27 in 10.0 mi WNW 6.9 mph - N/A   Clear
5:53 PM 34.0 °F - 19.0 °F 54% 30.27 in 10.0 mi Calm Calm - N/A   Clear
6:53 PM 33.1 °F 28.7 °F 21.0 °F 61% 30.28 in 10.0 mi Variable 4.6 mph - N/A   Clear
7:53 PM 32.0 °F 28.7 °F 21.0 °F 64% 30.29 in 10.0 mi WSW 3.5 mph - N/A   Clear
8:53 PM 30.9 °F 26.2 °F 19.9 °F 64% 30.30 in 10.0 mi West 4.6 mph - N/A   Clear
9:53 PM 28.9 °F - 19.9 °F 69% 30.31 in 10.0 mi Calm Calm - N/A   Clear
10:53 PM 27.0 °F 21.6 °F 19.9 °F 75% 30.31 in 10.0 mi WSW 4.6 mph - N/A   Clear
11:53 PM 26.1 °F 21.9 °F 19.0 °F 75% 30.30 in 10.0 mi WSW 3.5 mph - N/A   Clear